Workout of the Day

« September 8, 2022 »

10/20/30/40/50/60 Calories. 1 minute rest between intervals.

Intervals of 10, 20, 30, 40, 50 and 60 Calories, with one minute rest between.

Pos. Name Age Country Result Pace
1951 Meghan Aylward 43 CAN 24:09.1 2:56.5
1952 Bill Chapman 70 USA 24:11.6 2:57.1
1953 M-J M 39 NOR 24:15.2 2:56.6
1954 MARY HILLMAN 78 USA 24:15.8 2:57.0
1955 Mark Ganley 60 GBR 24:18.4 2:57.3
1956 Elizabeth Robinson 33 USA 24:19.8 2:57.8
1957 Cookie Suafilo 62 USA 24:25.1 2:58.4
1958 Christina Irvin 57 USA 24:28.8 2:58.2
1959 toyo nomi 37 CHN 24:30.1 2:58.4
1960 Li Es 39 GBR 24:38.8 3:04.8
1961 Luiz Vessosa 40 USA 24:40.4 3:00.0
1962 Chris H 39 GBR 24:51.9 3:01.4
1963 William Almon 67 USA 24:54.6 3:02.6
1964 Rod Handley 75 USA 24:57.7 3:01.4
1965 Adrianno Copetti 45 CAN 25:08.6 3:02.1
1966 Gizem Celenk 29 TUR 25:09.1 3:02.4
1967 Yan Yan 35 CHN 25:11.6 3:03.8
1968 Cynthia Swinbank 73 USA 25:12.0 3:02.4
1969 Kerem Cemil Özer 30 TUR 25:19.5 3:03.5
1970 Branka Mrduljaš 40 CRO 25:23.5 3:04.1
1971 Kirk Dobihal 71 USA 25:30.3 3:04.2
1971 Kirk Dobihal 71 USA 25:30.3 3:04.2
1973 Jason Kang 38 KOR 25:33.9 3:04.8
1974 Liezel Pimentel 35 USA 25:37.0 3:05.4
1975 Pam Terry 58 USA 25:47.8 3:05.9
1976 Nancy Regis 66 USA 26:06.3 3:08.8
1977 Grace Gutteridge 76 GBR 26:26.0 3:20.5
1978 YOONGON LEE 35 KOR 26:26.5 3:19.0
1979 Eileen Joyce 52 USA 26:29.6 3:11.0
1980 Zillah Martin 69 GBR 26:32.6 3:10.7
1981 Theresa Hruska 61 USA 26:35.4 3:12.8
1982 Kerstin Krojer 40 AUT 26:38.0 3:11.7
1983 Cindy Lufkin 57 USA 26:45.5 3:13.3
1984 Niesa Page 64 USA 26:47.9 3:13.2
1985 Deborah Toth 39 USA 26:51.9 3:13.9
1986 Paula Salinger 54 USA 26:56.0 3:13.4
1987 Marché Jones 46 USA 26:56.7 3:19.6
1988 RUTH ZAYAS 59 USA 27:05.7 3:14.6
1989 Randy Cashner 72 USA 27:08.1 3:20.6
1990 Neal Sammy 44 GER 27:11.1 3:16.1
1991 Gary Dunn 53 USA 27:11.8 3:16.0
1992 Pep Payo 58 ESP 27:13.9 3:17.0
1993 Jennifer Corso 51 USA 27:14.5 3:16.2
1994 Krista Park 45 USA 27:18.7 3:18.1
1995 Luciana Crestana 50 BRA 27:23.9 3:17.2
1996 Margie Whitmore 60 USA 27:26.1 3:17.7
1997 Sue Rees 68 USA 27:29.0 3:17.4
1998 Lawrence Templeman 82 USA 27:37.7 3:18.0
1999 BERTRAND JANNIERE 60 FRA 27:39.1 3:19.1
2000 Cecy Cano - USA 27:39.9 3:33.1